{"data":{"norad_id":57362,"intl_designator":"2023-099AL","name":"STARLINK-6343","alt_names":[],"object_type":"PAYLOAD","status":"ACTIVE","operator":null,"country":"US","launch_date":"2023-07-16","launch_site_code":"AFETR","launch_vehicle":null,"mission":null,"orbit_class":"UNKNOWN","rcs_meters":null,"size_class":null,"mass_kg":null,"dimensions":null,"purposes":["comms"],"wikipedia_slug":null,"has_3d_model":false,"image_url":null,"decayed_at":null,"tle_current":{"epoch":"2026-09-19T07:21:34.243776Z","epoch_age_seconds":227346,"freshness":"STALE","line1":"1 57362U 23099AL  26262.30664634  .00000108  00000+0  13452-4 0  9993","line2":"2 57362  43.0028 227.9666 0001520 275.1690  84.8989 15.27573104175800","mean_motion":15.27573104,"eccentricity":0.000152,"inclination_deg":43.0028,"raan_deg":227.9666,"arg_perigee_deg":275.169,"mean_anomaly_deg":84.8989,"bstar":1.3452e-5,"rev_number":17580,"period_min":94.267174266771,"perigee_km":482.02684179688,"apogee_km":484.11264864743,"semimajor_km":6861.2067452222,"source":"CELESTRAK","updated_at":"2026-09-21T09:00:33.603060Z"}}}